JCSAT-18 (KACIFIC 1)

Last updated on Sun Jul 06 2025 00:02:46 GMT+0000 (Coordinated Universal Time)

1 44868U 19091A 25185.74419552 -.00000186 00000+0 00000+0 0 9992 2 44868 0.0389 213.7175 0000342 337.4511 149.7263 1.00270814 20525
UTC large
Height (km)
Speed (km/s)
/
Latitude / Longitude
Inclination (degrees)
Orbital Period (minutes)
Azimuth
Elevation
Range (km)
Doppler Factor

Next 0 passes for location: London (51.5072 / 0.1276)

Sorry there are no passes over London.